KE7JGM-4 Weather Reports


time (UTC)temp
C
wind
direction
speed
KPH
gust
KPH
rain 1hr
cm
rain 24hr
cm
rain mn
cm
humidity
%
barometer
mb
20260507041517 13 0 1.6 4.8 0.00 0.00 0.00 38 1023.1
20260507040017 13 0 3.2 11.3 0.00 0.00 0.00 37 1023.4
20260507034517 14 0 3.2 11.3 0.00 0.00 0.00 37 1023.1
20260507033017 15 0 4.8 14.5 0.00 0.00 0.00 35 1023.0
20260507031517 15 0 6.4 14.5 0.00 0.00 0.00 34 1022.8
20260507030017 15 0 4.8 14.5 0.00 0.00 0.00 34 1022.7
20260507024517 15 0 3.2 9.7 0.00 0.00 0.00 34 1022.2
20260507023017 16 0 3.2 16.1 0.00 0.00 0.00 33 1021.6
20260507021517 16 0 3.2 12.9 0.00 0.00 0.00 32 1020.8
20260507020017 17 0 4.8 19.3 0.00 0.00 0.00 31 1020.7
20260507014557 17 0 8.0 20.9 0.00 0.00 0.00 30 1020.3
20260507013037 18 0 8.0 19.3 0.00 0.00 0.00 28 1020.5
20260507011557 20 0 6.4 17.7 0.00 0.00 0.00 26 1020.9
20260507010016 20 0 3.2 14.5 0.00 0.00 0.00 26 1021.0
20260507004516 20 0 6.4 19.3 0.00 0.00 0.00 26 1020.6
20260507003016 20 0 4.8 19.3 0.00 0.00 0.00 25 1020.5
20260507001516 20 0 3.2 11.3 0.00 0.00 0.00 24 1021.0
20260507000017 20 0 4.8 16.1 0.00 0.00 0.00 25 1020.9
20260506234516 21 0 3.2 12.9 0.00 0.00 0.00 25 1021.2
20260506233036 21 0 3.2 14.5 0.00 0.00 0.00 24 1021.4
20260506231516 20 0.0 3.2 0.00 0.00 0.00 24 1020.7
20260506230016 20 0.0 8.0 0.00 0.00 0.00 24 1020.9
20260506224557 20 0 3.2 16.1 0.00 0.00 0.00 23 1021.0
20260506223017 21 0 4.8 14.5 0.00 0.00 0.00 22 1021.5
20260506221516 20 0 1.6 8.0 0.00 0.00 0.00 24 1021.3
20260506220016 20 0 6.4 14.5 0.00 0.00 0.00 23 1021.9
20260506214516 20 0 6.4 22.5 0.00 0.00 0.00 23 1022.1
20260506213016 20 0 3.2 12.9 0.00 0.00 0.00 22 1022.4
20260506211537 19 0 3.2 12.9 0.00 0.00 0.00 24 1022.2
20260506210016 19 0 6.4 22.5 0.00 0.00 0.00 24 1022.6
20260506204516 19 0 3.2 16.1 0.00 0.00 0.00 26 1023.0
20260506203016 18 0 6.4 17.7 0.00 0.00 0.00 25 1022.7
20260506201516 18 0 6.4 19.3 0.00 0.00 0.00 25 1022.8
20260506200016 18 0 6.4 17.7 0.00 0.03 0.00 26 1022.9
20260506194516 17 0 6.4 19.3 0.00 0.03 0.00 26 1023.1
20260506193016 17 0 4.8 14.5 0.00 0.03 0.00 27 1022.8
20260506191516 17 0 4.8 17.7 0.00 0.03 0.00 26 1023.1
20260506190056 17 0 6.4 16.1 0.00 0.03 0.00 27 1023.2
20260506184516 16 0 6.4 19.3 0.00 0.03 0.00 27 1023.2
20260506183016 16 0 6.4 20.9 0.00 0.03 0.00 27 1023.3
20260506181516 16 0 6.4 19.3 0.00 0.03 0.00 28 1023.5
20260506180016 16 0 4.8 14.5 0.00 0.03 0.00 29 1023.4
20260506174516 16 23 6.4 16.1 0.00 0.03 0.00 30 1023.8
20260506173016 16 0 3.2 14.5 0.00 0.03 0.00 31 1023.7
20260506171516 15 0 3.2 9.7 0.00 0.03 0.00 33 1023.3
20260506170016 14 0 3.2 14.5 0.00 0.03 0.00 35 1023.4
20260506164536 14 0 4.8 14.5 0.00 0.03 0.00 35 1023.3
20260506163016 13 0 1.6 8.0 0.00 0.03 0.00 37 1023.3
20260506161516 12 0 3.2 11.3 0.00 0.03 0.00 37 1022.8
20260506160016 13 0 1.6 8.0 0.00 0.03 0.00 37 1023.2
20260506154516 12 0.0 0.0 0.00 0.03 0.00 38 1023.1
20260506153036 12 0.0 4.8 0.00 0.03 0.00 39 1022.7
20260506151515 12 0.0 4.8 0.00 0.03 0.00 39 1022.7
20260506150016 11 0.0 3.2 0.00 0.03 0.00 43 1022.3
20260506144515 10 0.0 0.0 0.00 0.03 0.00 47 1022.2
20260506143016 8 0.0 0.0 0.00 0.03 0.00 53 1021.8
20260506141515 7 0.0 0.0 0.00 0.03 0.00 57 1021.2
20260506140015 6 0.0 0.0 0.00 0.03 0.00 60 1020.7
20260506134516 5 0.0 0.0 0.00 0.03 0.00 64 1020.5
20260506133016 4 0.0 1.6 0.00 0.03 0.00 64 1020.3
20260506131516 4 0.0 1.6 0.00 0.03 0.00 65 1020.2
20260506130017 3 0.0 0.0 0.00 0.03 0.00 67 1019.6
20260506124537 3 0.0 0.0 0.00 0.03 0.00 69 1019.1
20260506123037 3 0.0 0.0 0.00 0.03 0.00 68 1019.2
20260506121517 3 0.0 0.0 0.00 0.03 0.00 66 1019.1
20260506120018 3 0.0 0.0 0.00 0.03 0.00 65 1019.1
20260506114517 4 0.0 0.0 0.00 0.03 0.00 63 1019.7
20260506113018 4 0.0 0.0 0.00 0.03 0.00 64 1019.6
20260506111557 3 0.0 0.0 0.00 0.03 0.00 66 1019.9
20260506110017 3 0.0 0.0 0.00 0.03 0.00 66 1019.4
20260506104517 3 0.0 0.0 0.00 0.03 0.00 65 1019.5
20260506103017 3 0.0 0.0 0.00 0.03 0.00 64 1019.4
20260506101537 4 0.0 0.0 0.00 0.03 0.00 63 1019.4
20260506100017 4 0.0 0.0 0.00 0.03 0.00 62 1019.8
20260506094517 4 0.0 0.0 0.00 0.03 0.00 62 1019.4
20260506093017 4 0.0 0.0 0.00 0.03 0.00 63 1019.4
20260506091517 3 0.0 0.0 0.00 0.03 0.00 63 1018.8
20260506090017 4 0.0 0.0 0.00 0.03 0.00 62 1018.6
20260506084517 5 0.0 0.0 0.00 0.03 0.00 60 1019.0
20260506083037 5 0.0 0.0 0.00 0.03 0.00 60 1018.5
20260506081517 5 0.0 0.0 0.00 0.03 0.00 59 1018.1
20260506073017 5 0.0 0.0 0.00 0.03 0.00 58 1018.6
20260506071516 5 0.0 0.0 0.00 0.03 0.00 57 1018.4
20260506061517 6 0.0 0.0 0.00 0.03 0.03 54 1018.7
20260506044517 8 0.0 0.0 0.00 0.03 0.03 49 1018.3
20260506043017 8 0.0 0.0 0.00 0.03 0.03 47 1018.1